Houston / Dunn Helistop, TX

5:52 PM CST on January 20, 2018 (GMT -0600)
Houston / Dunn Helistop

Weather History for KMCJ - October, 2013

Change the Weather History Date:

Tuesday, October 29, 2013

  Actual Average (KHOU) Record (KHOU)
Temperature  
Mean Temperature 76 °F -  
Max Temperature 82 °F 76 °F 90 °F (1991)
Min Temperature 71 °F 59 °F 35 °F (2017)
Cooling Degree Days 12    
Growing Degree Days 26 (Base 50)    
Moisture  
Dew Point 67 °F    
Average Humidity 74    
Maximum Humidity 88    
Minimum Humidity 58    
Precipitation  
Precipitation 0.00 in - - ()
Sea Level Pressure  
Sea Level Pressure 30.05 in    
Wind  
Wind Speed 10 mph (SE)    
Max Wind Speed 20 mph    
Max Gust Speed 24 mph    
Visibility 10 miles    
Events      
Averages and records for this station are not official NWS values.
T = Trace of Precipitation, MM = Missing Value Source: NWS Daily Summary

Daily Weather History Graph

Daily Weather History Graph

Search for Another Location

Airport or City:

Trip Planner

Search our weather history database for the weather conditions in past years. The results will help you decide how hot, cold, wet, or windy it might be!

Date:

Astronomy

Oct. 29, 2013 Rise Set
Actual Time 7:33 AM CDT 6:37 PM CDT
Civil Twilight 7:08 AM CDT 7:01 PM CDT
Nautical Twilight 6:40 AM CDT 7:29 PM CDT
Astronomical Twilight 6:12 AM CDT 7:57 PM CDT
Moon 2:45 AM CDT (10/29) 3:32 PM CDT (10/29)
Length of Visible Light 11h 53m
Length of Day
11h 04m
Waning Crescent, 25% of the Moon is Illuminated
Oct 29
Waning Crescent
Nov 3
New
Nov 9
First Quarter
Nov 17
Full
Nov 25
Last Quarter

Hourly Weather History & Observations

Time (CDT) Temp. Heat Index Dew Point Humidity Pressure Visibility Wind Dir Wind Speed Gust Speed Precip Events Conditions
12:15 AM 71.6 °F - 68.0 °F 88% 30.07 in 10.0 mi ESE 8.1 mph - N/A   Clear
12:35 AM 71.6 °F - 68.0 °F 88% 30.07 in 10.0 mi SE 8.1 mph - N/A   Partly Cloudy
12:55 AM 71.6 °F - 68.0 °F 88% 30.08 in 10.0 mi ESE 5.8 mph - N/A   Partly Cloudy
1:15 AM 71.6 °F - 68.0 °F 88% 30.07 in 10.0 mi SE 8.1 mph - N/A   Partly Cloudy
1:35 AM 71.6 °F - 68.0 °F 88% 30.07 in 10.0 mi SE 9.2 mph - N/A   Clear
1:55 AM 71.6 °F - 68.0 °F 88% 30.06 in 10.0 mi SE 8.1 mph - N/A   Clear
2:15 AM 71.6 °F - 68.0 °F 88% 30.07 in 10.0 mi SE 9.2 mph - N/A   Clear
2:35 AM 71.6 °F - 68.0 °F 88% 30.06 in 10.0 mi SE 8.1 mph - N/A   Clear
2:55 AM 71.6 °F - 68.0 °F 88% 30.06 in 10.0 mi SE 6.9 mph - N/A   Clear
3:15 AM 71.6 °F - 68.0 °F 88% 30.06 in 10.0 mi SE 9.2 mph - N/A   Partly Cloudy
3:35 AM 71.6 °F - 68.0 °F 88% 30.06 in 10.0 mi SE 8.1 mph - N/A   Clear
3:55 AM 71.6 °F - 68.0 °F 88% 30.06 in 10.0 mi SE 8.1 mph - N/A   Clear
4:15 AM 71.6 °F - 68.0 °F 88% 30.05 in 10.0 mi SE 8.1 mph - N/A   Clear
7:55 AM 71.6 °F - 66.2 °F 83% 30.06 in 10.0 mi SE 11.5 mph - N/A   Partly Cloudy
9:35 AM 75.2 °F - 68.0 °F 78% 30.08 in 10.0 mi SSE 10.4 mph - N/A   Clear
9:55 AM 75.2 °F - 68.0 °F 78% 30.09 in 10.0 mi SSE 9.2 mph - N/A   Clear
10:15 AM 77.0 °F - 68.0 °F 74% 30.09 in 10.0 mi SSE 10.4 mph - N/A   Clear
10:35 AM 80.6 °F 83.2 °F 68.0 °F 65% 30.09 in 10.0 mi SE 11.5 mph 17.3 mph N/A   Clear
10:55 AM 80.6 °F 83.2 °F 68.0 °F 65% 30.09 in 10.0 mi SSE 10.4 mph 20.7 mph N/A   Partly Cloudy
11:15 AM 80.6 °F 82.7 °F 66.2 °F 61% 30.09 in 10.0 mi SSE 10.4 mph 20.7 mph N/A   Mostly Cloudy
11:35 AM 80.6 °F 83.2 °F 68.0 °F 65% 30.09 in 10.0 mi SSE 6.9 mph - N/A   Mostly Cloudy
11:55 AM 80.6 °F 82.7 °F 66.2 °F 61% 30.08 in 10.0 mi SSE 19.6 mph 24.2 mph N/A   Mostly Cloudy
12:15 PM 82.4 °F 84.6 °F 66.2 °F 58% 30.07 in 10.0 mi SSE 18.4 mph 21.9 mph N/A   Mostly Cloudy
12:35 PM 82.4 °F 84.6 °F 66.2 °F 58% 30.07 in 10.0 mi SE 12.7 mph 21.9 mph N/A   Scattered Clouds
12:55 PM 82.4 °F 84.6 °F 66.2 °F 58% 30.06 in 10.0 mi ESE 12.7 mph 20.7 mph N/A   Mostly Cloudy
1:15 PM 82.4 °F 84.6 °F 66.2 °F 58% 30.06 in 10.0 mi South 10.4 mph 21.9 mph N/A   Mostly Cloudy
1:35 PM 82.4 °F 84.6 °F 66.2 °F 58% 30.05 in 10.0 mi SE 10.4 mph 23.0 mph N/A   Mostly Cloudy
1:55 PM 82.4 °F 84.6 °F 66.2 °F 58% 30.04 in 10.0 mi SE 16.1 mph 21.9 mph N/A   Mostly Cloudy
2:15 PM 82.4 °F 84.6 °F 66.2 °F 58% 30.03 in 10.0 mi SSE 12.7 mph 21.9 mph N/A   Scattered Clouds
2:35 PM 82.4 °F 84.6 °F 66.2 °F 58% 30.02 in 10.0 mi SE 10.4 mph 21.9 mph N/A   Scattered Clouds
2:55 PM 82.4 °F 84.6 °F 66.2 °F 58% 30.01 in 10.0 mi SSE 12.7 mph 19.6 mph N/A   Scattered Clouds
3:15 PM 82.4 °F 84.6 °F 66.2 °F 58% 30.01 in 10.0 mi SE 17.3 mph 23.0 mph N/A   Scattered Clouds
3:35 PM 82.4 °F 84.6 °F 66.2 °F 58% 30.02 in 10.0 mi SE 9.2 mph 19.6 mph N/A   Partly Cloudy
3:55 PM 82.4 °F 84.6 °F 66.2 °F 58% 30.02 in 10.0 mi SE 10.4 mph 17.3 mph N/A   Mostly Cloudy
4:15 PM 80.6 °F 82.7 °F 66.2 °F 61% 30.02 in 10.0 mi ESE 12.7 mph 24.2 mph N/A   Mostly Cloudy
4:35 PM 80.6 °F 82.7 °F 66.2 °F 61% 30.02 in 10.0 mi SE 15.0 mph 24.2 mph N/A   Partly Cloudy
4:55 PM 80.6 °F 82.7 °F 66.2 °F 61% 30.02 in 10.0 mi ESE 10.4 mph 23.0 mph N/A   Partly Cloudy
5:15 PM 80.6 °F 83.2 °F 68.0 °F 65% 30.01 in 10.0 mi ESE 16.1 mph 21.9 mph N/A   Mostly Cloudy
5:35 PM 78.8 °F - 66.2 °F 65% 30.02 in 10.0 mi ESE 12.7 mph 21.9 mph N/A   Scattered Clouds
5:55 PM 77.0 °F - 66.2 °F 69% 30.02 in 10.0 mi ESE 13.8 mph 18.4 mph N/A   Partly Cloudy
6:15 PM 77.0 °F - 66.2 °F 69% 30.03 in 10.0 mi ESE 11.5 mph - N/A   Clear
6:55 PM 77.0 °F - 68.0 °F 74% 30.03 in 10.0 mi ESE 9.2 mph 16.1 mph N/A   Clear
7:15 PM 75.2 °F - 68.0 °F 78% 30.03 in 10.0 mi ESE 12.7 mph 18.4 mph N/A   Clear
7:35 PM 75.2 °F - 68.0 °F 78% 30.05 in 10.0 mi ESE 8.1 mph - N/A   Clear
7:55 PM 75.2 °F - 68.0 °F 78% 30.05 in 10.0 mi ESE 11.5 mph - N/A   Clear
8:15 PM 75.2 °F - 68.0 °F 78% 30.05 in 10.0 mi East 8.1 mph - N/A   Clear
8:35 PM 73.4 °F - 68.0 °F 83% 30.06 in 10.0 mi East 6.9 mph - N/A   Clear
8:55 PM 73.4 °F - 68.0 °F 83% 30.06 in 10.0 mi ESE 8.1 mph - N/A   Clear
9:15 PM 73.4 °F - 68.0 °F 83% 30.06 in 10.0 mi ESE 9.2 mph - N/A   Clear
9:35 PM 73.4 °F - 68.0 °F 83% 30.06 in 10.0 mi ESE 8.1 mph - N/A   Clear
9:55 PM 73.4 °F - 68.0 °F 83% 30.06 in 10.0 mi ESE 9.2 mph - N/A   Clear
10:15 PM 73.4 °F - 68.0 °F 83% 30.06 in 10.0 mi ESE 11.5 mph - N/A   Clear
10:35 PM 73.4 °F - 68.0 °F 83% 30.05 in 10.0 mi ESE 9.2 mph - N/A   Clear
10:55 PM 73.4 °F - 69.8 °F 88% 30.06 in 10.0 mi ESE 9.2 mph - N/A   Clear
11:35 PM 73.4 °F - 69.8 °F 88% 30.05 in 10.0 mi ESE 10.4 mph - N/A   Clear
11:55 PM 73.4 °F - 69.8 °F 88% 30.04 in 10.0 mi ESE 10.4 mph - N/A   Clear